Content
SEND FEEDBACK

Daily
Averages
Monthly
Summary
Colombia

BOGOTA, COLOMBIA


Home > South America > Colombia
Elevation: 8357 feet     Latitude: 04 42N     Longitude: 074 08W

WEATHER
 
SELECT A DAY
Number of Records: 171,659;   Date Range: 6/30/96 - 9/28/14
 
SHARE

PRINT THIS DATA

[ ← Previous Day ]
WEATHER ALMANAC - JUNE 13, 2013
[ Next Day → ]
[ °C ]   °F
Weather ElementAverageHighLow
Temperature57.1 °F65 °F (1:00 pm)48.2 °F (6:00 am)
Dewpoint49.4 °F53.6 °F (2:05 pm)46.4 °F (8:08 am)
Humidity74.9 %100 % (3:00 am)41 % (1:00 pm)
Barometer30.34 in30.39 in (7:00 am)30.27 in (4:00 pm)
Wind Speed4.1 mph9.2 mph (2:05 pm)
Weather ElementAverage
Visibility6.8 mi
Wind DirectionESE (102.4 °)

Weather ElementTotal
Precipitation---
Heating Degree Days8.4 (Base 65)
Growing Degree Days6.6 (Base 50)
Averaged from 34 records on June 13, 2013
WEATHER CONDITIONS BREAKOUT
WIND DIRECTION BREAKOUT
WEATHER BY HOUR - JUNE 13, 2013
[ °C ]   °F
Local TimeTemperatureDewpointHumidityBarometerVisibilityWind DirectionWind SpeedGust SpeedPrecipitationEventsConditions
1:00 AM52.0 °F49.0 °F84 %10.0 miNE (40°)2.2 mphHaze
1:00 AM51.8 °F48.2 °F88 %30.36 in6.2 miVariable2.3 mphScattered Clouds
2:00 AM51.8 °F48.2 °F88 %30.34 in6.2 miENE (60°)3.5 mphScattered Clouds
3:00 AM50.0 °F50.0 °F100 %30.33 in6.2 miCalmScattered Clouds
4:00 AM50.0 °F9.0 miWSW (240°)2.2 mph
4:00 AM50.0 °F48.2 °F94 %30.34 in6.2 miVariable2.3 mphScattered Clouds
5:00 AM50.0 °F48.2 °F94 %30.34 in6.2 miNorth (350°)3.5 mphScattered Clouds
5:30 AM50.0 °F48.2 °F94 %30.34 in6.2 miVariable2.3 mphScattered Clouds
6:00 AM48.2 °F48.2 °F100 %30.35 in6.2 miNNW (340°)3.5 mphFogShallow Fog
7:00 AM50.0 °F49.0 °F95 %9.0 miNNW (330°)4.5 mphHaze
7:00 AM50.0 °F48.2 °F94 %30.39 in6.2 miNNW (330°)3.5 mphScattered Clouds
8:00 AM53.6 °F51.8 °F94 %30.39 in6.2 miVariable2.3 mphScattered Clouds
8:08 AM60.8 °F46.4 °F59 %30.39 in6.2 miNNW (330°)6.9 mphScattered Clouds
9:00 AM57.2 °F46.4 °F67 %30.39 in6.2 miNNE (20°)5.8 mphScattered Clouds
10:00 AM62.0 °F50.0 °F54 %11.0 miNNE (30°)6.7 mphHaze
10:00 AM62.6 °F50.0 °F63 %30.38 in6.2 miNNE (30°)5.8 mphScattered Clouds
11:00 AM62.6 °F48.2 °F59 %30.37 in6.2 miVariable2.3 mphScattered Clouds
12:00 PM64.4 °F48.2 °F56 %30.35 in6.2 miVariable2.3 mphScattered Clouds
1:00 PM65.0 °F47.0 °F41 %9.0 miWSW (250°)6.7 mphHaze
1:00 PM64.4 °F46.4 °F52 %30.31 in6.2 miWSW (250°)5.8 mphMostly Cloudy
2:00 PM64.4 °F48.2 °F56 %30.30 in5.0 miNNE (20°)4.6 mphRainRain
2:05 PM59.0 °F53.6 °F82 %30.30 in4.3 miNNW (340°)9.2 mphRainRain
3:00 PM60.8 °F53.6 °F77 %30.29 in5.0 miVariable2.3 mphScattered Clouds
4:00 PM64.0 °F52.0 °F56 %9.0 miNNE (30°)6.7 mphHaze
4:00 PM64.4 °F51.8 °F64 %30.27 in6.2 miNNE (30°)6.9 mphScattered Clouds
5:00 PM62.6 °F51.8 °F68 %30.27 in6.2 miEast (80°)5.8 mphScattered Clouds
6:00 PM60.8 °F50.0 °F68 %30.29 in6.2 miEast (90°)5.8 mphScattered Clouds
7:00 PM60.0 °F50.0 °F61 %9.0 miENE (60°)4.5 mphHaze
7:00 PM60.8 °F50.0 °F68 %30.29 in6.2 miENE (60°)3.5 mphScattered Clouds
8:00 PM59.0 °F50.0 °F72 %30.30 in6.2 miNE (40°)3.5 mphPartly Cloudy
9:00 PM55.4 °F50.0 °F82 %30.33 in6.2 miCalmPartly Cloudy
10:00 PM55.0 °F50.0 °F78 %9.0 miNE (50°)4.5 mphHaze
10:00 PM55.4 °F50.0 °F82 %30.36 in6.2 miNE (50°)3.5 mphPartly Cloudy
11:00 PM53.6 °F48.2 °F82 %30.36 in6.2 miNNE (30°)3.5 mphPartly Cloudy
Hourly data recorded from SKBO, located miles away from Bogota, Colombia







STORIES FROM OUR PARTNERS